Flag for French Polynesia Weather past 2 weeks in Papeete, Tahiti, French Polynesia

Now
77 °F

Passing clouds.


Feels Like: 79 °F
Forecast: 76 / 84 °F
Wind: 6 mph from East

Location: Tahiti-Faaa

Current Time: Sep 20, 2014 at 12:50:36 AM

Latest Report: Sep 20, 2014 at 12:30 AM


Visibility: N/A

Pressure: 29.95 "Hg

Humidity: 79%

Dew point: 70 °F

Location of PapeeteLocation

Historic Weather in Papeete — Graph

°F

Papeete temperature yesterday

Maximum temperature yesterday: 86 °F (at 12:30 PM)
Minimum temperature yesterday: 77 °F (at 1:40 AM)
Average temperature yesterday: 81 °F

Past Weeks' High & Low Weather Summary

 TemperatureHumidityPressure
High86 °F (Sep 6, 1:30 PM)94% (Sep 9, 12:00 AM)30.04 "Hg (Sep 9, 12:00 AM)
Low70 °F (Sep 17, 5:00 AM)55% (Sep 6, 3:00 PM)29.83 "Hg (Sep 12, 3:00 PM)
Average78 °F75%29.93 "Hg
* Reported Sep 4 11:00 PM — Sep 19 11:00 PM, Papeete, Weather by CustomWeather, © 2014

Note: Actual official high and low records may vary slightly from our data, if they occured in-between our weather recording intervals... More about our weather records

Advertising

Papeete weather history for previous 24 hours

 ConditionsComfort  
Time TempWeatherWind HumidityBarometerVisibility
11:00 PM
Sep 19
77 °FPassing clouds.5 mph74%29.95 "HgN/A
10:00 PM77 °FPassing clouds.3 mph74%29.98 "HgN/A
8:30 PM79 °FPassing clouds.3 mph70%29.98 "HgN/A
8:00 PM79 °FPassing clouds.3 mph70%29.95 "HgN/A
7:30 PM79 °FPassing clouds.3 mph70%29.95 "HgN/A
7:00 PM81 °FPassing clouds.7 mph70%29.95 "HgN/A
6:30 PM81 °FPassing clouds.8 mph74%29.95 "HgN/A
6:00 PM81 °FPassing clouds.8 mph74%29.95 "HgN/A
5:30 PM82 °FPassing clouds.9 mph70%29.92 "HgN/A
5:00 PM82 °FPassing clouds.10 mph66%29.92 "HgN/A
4:30 PM82 °FPassing clouds.12 mph70%29.92 "HgN/A
4:00 PM84 °FPassing clouds.12 mph66%29.92 "HgN/A
3:00 PM84 °FPassing clouds.12 mph66%29.92 "HgN/A
2:30 PM84 °FPassing clouds.13 mph66%29.92 "HgN/A
2:00 PM84 °FPassing clouds.14 mph66%29.92 "HgN/A
1:30 PM86 °FPassing clouds.13 mph62%29.92 "HgN/A
1:00 PM86 °FPassing clouds.13 mph62%29.95 "HgN/A
12:30 PM86 °FPassing clouds.14 mph62%29.95 "HgN/A
12:00 PM84 °FScattered clouds.15 mph70%29.95 "HgN/A
11:30 AM84 °FScattered clouds.15 mph66%29.98 "HgN/A
11:00 AM84 °FPassing clouds.14 mph70%29.98 "HgN/A
10:30 AM84 °FPassing clouds.15 mph66%29.98 "HgN/A
10:00 AM84 °FPassing clouds.16 mph66%29.98 "HgN/A
9:30 AM84 °FPassing clouds.15 mph66%30.01 "HgN/A
9:00 AM82 °FPassing clouds.14 mph70%30.01 "HgN/A
8:30 AM82 °FPassing clouds.10 mph70%30.01 "HgN/A
8:00 AM81 °FPassing clouds.12 mph74%30.01 "HgN/A
7:30 AM81 °FPassing clouds.12 mph70%29.98 "HgN/A
7:00 AM79 °FPassing clouds.10 mph74%29.98 "HgN/A
6:30 AM79 °FPassing clouds.8 mph74%29.95 "HgN/A
6:00 AM77 °FPassing clouds.8 mph74%29.95 "HgN/A
5:30 AM77 °FWarm.7 mph74%29.92 "HgN/A
5:00 AM77 °FPassing clouds.6 mph74%29.92 "HgN/A
4:30 AM77 °FWarm.7 mph74%29.92 "HgN/A
4:00 AM77 °FWarm.7 mph69%29.92 "HgN/A
3:30 AM77 °FWarm.6 mph69%29.92 "HgN/A
3:00 AM77 °FPassing clouds.7 mph69%29.92 "HgN/A
2:30 AM77 °FPassing clouds.6 mph74%29.92 "HgN/A
2:00 AM77 °FPassing clouds.7 mph69%29.92 "HgN/A
1:40 AM77 °FPassing clouds.7 mph69%29.92 "HgN/A
1:00 AM79 °FPassing clouds.7 mph70%29.95 "HgN/A
12:30 AM79 °FPassing clouds.7 mph70%29.95 "HgN/A
12:00 AM79 °FPassing clouds.7 mph65%29.98 "HgN/A
Weather by CustomWeather, © 2014

See weather overviewHow to use our weather pages